| time (UTC) | temp C | wind direction | speed KPH | gust KPH | rain 1hr cm | rain 24hr cm | rain mn cm | humidity % | barometer mb |
| 20260510083043 | 17 | 0 | 0.0 | 3.2 | 0.00 | 0.00 | 0.00 | 76 | 1013.3 |
| 20260510082527 | 17 | 132 | 0.0 | 3.2 | 0.00 | 0.00 | 0.00 | 76 | 1013.2 |
| 20260510082029 | 17 | 0 | 0.0 | 3.2 | 0.00 | 0.00 | 0.00 | 75 | 1013.4 |
| 20260510081541 | 17 | 132 | 0.0 | 3.2 | 0.00 | 0.00 | 0.00 | 73 | 1013.5 |
| 20260510081031 | 17 | 0 | 0.0 | 1.6 | 0.00 | 0.00 | 0.00 | 74 | 1013.4 |
| 20260510080530 | 17 | 0 | 0.0 | 0.0 | 0.00 | 0.00 | 0.00 | 73 | 1013.1 |
| 20260510080040 | 17 | 0 | 0.0 | 1.6 | 0.00 | 0.00 | 0.00 | 74 | 1013.2 |
| 20260510075528 | 17 | 0 | 0.0 | 1.6 | 0.00 | 0.00 | 0.00 | 73 | 1013.2 |
| 20260510075028 | 17 | 0 | 0.0 | 3.2 | 0.00 | 0.00 | 0.00 | 73 | 1013.2 |
| 20260510074544 | 17 | 0 | 0.0 | 3.2 | 0.00 | 0.00 | 0.00 | 72 | 1013.1 |
| 20260510074027 | 17 | 133 | 0.0 | 3.2 | 0.00 | 0.00 | 0.00 | 72 | 1013.2 |
| 20260510073528 | 17 | 0 | 0.0 | 0.0 | 0.00 | 0.00 | 0.00 | 72 | 1013.1 |
| 20260510073045 | 17 | 0 | 0.0 | 1.6 | 0.00 | 0.00 | 0.00 | 73 | 1013.1 |
| 20260510072528 | 17 | 0 | 0.0 | 1.6 | 0.00 | 0.00 | 0.00 | 73 | 1013.2 |
| 20260510072028 | 18 | 0 | 0.0 | 1.6 | 0.00 | 0.00 | 0.00 | 72 | 1013.2 |
| 20260510071550 | 18 | 0 | 0.0 | 3.2 | 0.00 | 0.00 | 0.00 | 71 | 1013.2 |
| 20260510071030 | 18 | 0 | 0.0 | 3.2 | 0.00 | 0.00 | 0.00 | 71 | 1013.2 |
| 20260510070530 | 18 | 0 | 1.6 | 3.2 | 0.00 | 0.00 | 0.00 | 70 | 1013.2 |
| 20260510070044 | 18 | 131 | 0.0 | 3.2 | 0.00 | 0.00 | 0.00 | 69 | 1013.1 |
| 20260510065529 | 18 | 133 | 0.0 | 3.2 | 0.00 | 0.00 | 0.00 | 68 | 1013.3 |
| 20260510065029 | 18 | 132 | 0.0 | 3.2 | 0.00 | 0.00 | 0.00 | 68 | 1013.4 |
| 20260510064541 | 17 | 0 | 0.0 | 3.2 | 0.00 | 0.00 | 0.00 | 68 | 1013.5 |
| 20260510064028 | 17 | 0 | 0.0 | 1.6 | 0.00 | 0.00 | 0.00 | 68 | 1013.6 |
| 20260510063528 | 17 | 0 | 0.0 | 0.0 | 0.00 | 0.00 | 0.00 | 70 | 1013.7 |
| 20260510063040 | 17 | 0 | 0.0 | 0.0 | 0.00 | 0.00 | 0.00 | 70 | 1013.6 |
| 20260510062531 | 16 | 0 | 0.0 | 0.0 | 0.00 | 0.00 | 0.00 | 70 | 1013.6 |
| 20260510062030 | 16 | 0 | 0.0 | 0.0 | 0.00 | 0.00 | 0.00 | 70 | 1013.6 |
| 20260510061542 | 16 | 0 | 0.0 | 0.0 | 0.00 | 0.00 | 0.00 | 71 | 1013.6 |
| 20260510061028 | 16 | 0 | 0.0 | 0.0 | 0.00 | 0.00 | 0.00 | 72 | 1013.7 |
| 20260510060529 | 16 | 0 | 0.0 | 0.0 | 0.00 | 0.00 | 0.00 | 72 | 1013.6 |
| 20260510060045 | 15 | 0 | 0.0 | 0.0 | 0.00 | 0.00 | 0.00 | 72 | 1013.9 |
| 20260510055529 | 15 | 0 | 0.0 | 0.0 | 0.00 | 0.00 | 0.00 | 72 | 1013.9 |
| 20260510055029 | 15 | 0 | 0.0 | 0.0 | 0.00 | 0.00 | 0.00 | 73 | 1013.8 |
| 20260510054542 | 16 | 0 | 0.0 | 0.0 | 0.00 | 0.00 | 0.00 | 74 | 1013.8 |
| 20260510054027 | 16 | 0 | 0.0 | 0.0 | 0.00 | 0.00 | 0.00 | 71 | 1013.9 |
| 20260510053528 | 16 | 0 | 0.0 | 0.0 | 0.00 | 0.00 | 0.00 | 72 | 1013.9 |
| 20260510053055 | 16 | 0 | 0.0 | 0.0 | 0.00 | 0.00 | 0.00 | 69 | 1013.9 |
| 20260510052530 | 16 | 0 | 0.0 | 0.0 | 0.00 | 0.00 | 0.00 | 69 | 1013.9 |
| 20260510052030 | 16 | 0 | 0.0 | 0.0 | 0.00 | 0.00 | 0.00 | 67 | 1013.9 |
| 20260510051547 | 16 | 0 | 0.0 | 0.0 | 0.00 | 0.00 | 0.00 | 67 | 1013.8 |
| 20260510051027 | 16 | 0 | 0.0 | 0.0 | 0.00 | 0.00 | 0.00 | 66 | 1013.9 |
| 20260510050530 | 16 | 0 | 0.0 | 0.0 | 0.00 | 0.00 | 0.00 | 67 | 1013.7 |
| 20260510050050 | 16 | 0 | 0.0 | 0.0 | 0.00 | 0.00 | 0.00 | 66 | 1013.6 |
| 20260510045554 | 16 | 0 | 0.0 | 0.0 | 0.00 | 0.00 | 0.00 | 66 | 1013.7 |
| 20260510045028 | 16 | 0 | 0.0 | 0.0 | 0.00 | 0.00 | 0.00 | 66 | 1013.6 |
| 20260510044543 | 16 | 0 | 0.0 | 0.0 | 0.00 | 0.00 | 0.00 | 65 | 1013.5 |
| 20260510044028 | 16 | 0 | 0.0 | 0.0 | 0.00 | 0.00 | 0.00 | 64 | 1013.3 |
| 20260510043528 | 17 | 0 | 0.0 | 0.0 | 0.00 | 0.00 | 0.00 | 64 | 1013.3 |
| 20260510043058 | 17 | 0 | 0.0 | 0.0 | 0.00 | 0.00 | 0.00 | 63 | 1013.3 |
| 20260510042530 | 17 | 0 | 0.0 | 0.0 | 0.00 | 0.00 | 0.00 | 63 | 1013.4 |
| 20260510042030 | 17 | 0 | 0.0 | 0.0 | 0.00 | 0.00 | 0.00 | 63 | 1013.4 |
| 20260510041539 | 17 | 0 | 0.0 | 0.0 | 0.00 | 0.00 | 0.00 | 63 | 1013.4 |
| 20260510041030 | 17 | 0 | 0.0 | 0.0 | 0.00 | 0.00 | 0.00 | 64 | 1013.4 |
| 20260510040528 | 17 | 0 | 0.0 | 0.0 | 0.00 | 0.00 | 0.00 | 63 | 1013.5 |
| 20260510040044 | 17 | 0 | 0.0 | 0.0 | 0.00 | 0.00 | 0.00 | 63 | 1013.4 |
| 20260510035528 | 17 | 0 | 0.0 | 0.0 | 0.00 | 0.00 | 0.00 | 63 | 1013.2 |
| 20260510035028 | 17 | 0 | 0.0 | 0.0 | 0.00 | 0.00 | 0.00 | 63 | 1013.2 |
| 20260510034540 | 17 | 0 | 0.0 | 0.0 | 0.00 | 0.00 | 0.00 | 64 | 1012.9 |
| 20260510034031 | 17 | 0 | 0.0 | 0.0 | 0.00 | 0.00 | 0.00 | 63 | 1012.8 |
| 20260510033532 | 17 | 0 | 0.0 | 0.0 | 0.00 | 0.00 | 0.00 | 64 | 1012.9 |
| 20260510033040 | 17 | 0 | 0.0 | 0.0 | 0.00 | 0.00 | 0.00 | 65 | 1012.7 |
| 20260510032528 | 17 | 0 | 0.0 | 0.0 | 0.00 | 0.00 | 0.00 | 69 | 1012.5 |
| 20260510032033 | 17 | 0 | 0.0 | 0.0 | 0.00 | 0.00 | 0.00 | 65 | 1012.3 |
| 20260510031549 | 17 | 0 | 0.0 | 0.0 | 0.00 | 0.00 | 0.00 | 66 | 1012.5 |
| 20260510031031 | 17 | 0 | 0.0 | 0.0 | 0.00 | 0.00 | 0.00 | 64 | 1012.4 |
| 20260510030531 | 17 | 0 | 0.0 | 0.0 | 0.00 | 0.00 | 0.00 | 64 | 1012.3 |
| 20260510030041 | 17 | 0 | 0.0 | 0.0 | 0.00 | 0.00 | 0.00 | 63 | 1012.3 |
| 20260510025527 | 17 | 0 | 0.0 | 0.0 | 0.00 | 0.00 | 0.00 | 63 | 1012.1 |
| 20260510025031 | 17 | 0 | 0.0 | 0.0 | 0.00 | 0.00 | 0.00 | 64 | 1012.2 |
| 20260510024544 | 18 | 0 | 0.0 | 0.0 | 0.00 | 0.00 | 0.00 | 66 | 1012.0 |
| 20260510024031 | 18 | 0 | 0.0 | 0.0 | 0.00 | 0.00 | 0.00 | 63 | 1011.9 |
| 20260510023530 | 18 | 0 | 0.0 | 0.0 | 0.00 | 0.00 | 0.00 | 65 | 1011.8 |
| 20260510023040 | 18 | 0 | 0.0 | 0.0 | 0.00 | 0.00 | 0.00 | 62 | 1011.6 |
| 20260510022528 | 18 | 0 | 0.0 | 0.0 | 0.00 | 0.00 | 0.00 | 62 | 1011.6 |
| 20260510022027 | 18 | 0 | 0.0 | 0.0 | 0.00 | 0.00 | 0.00 | 63 | 1011.5 |
| 20260510021548 | 18 | 0 | 0.0 | 0.0 | 0.00 | 0.00 | 0.00 | 60 | 1011.3 |
| 20260510021031 | 18 | 0 | 0.0 | 0.0 | 0.00 | 0.00 | 0.00 | 60 | 1011.2 |
| 20260510020534 | 19 | 0 | 0.0 | 0.0 | 0.00 | 0.00 | 0.00 | 62 | 1011.1 |
| 20260510020039 | 19 | 0 | 0.0 | 0.0 | 0.00 | 0.00 | 0.00 | 60 | 1011.0 |
| 20260510015530 | 19 | 0 | 0.0 | 0.0 | 0.00 | 0.10 | 0.00 | 62 | 1011.0 |
| 20260510015027 | 20 | 0 | 0.0 | 0.0 | 0.00 | 0.10 | 0.00 | 60 | 1010.9 |
| 20260510014541 | 20 | 0 | 0.0 | 0.0 | 0.00 | 0.10 | 0.00 | 60 | 1010.9 |
| 20260510014029 | 20 | 0 | 0.0 | 0.0 | 0.00 | 0.10 | 0.00 | 60 | 1010.8 |
| 20260510013531 | 20 | 0 | 0.0 | 0.0 | 0.00 | 0.10 | 0.00 | 63 | 1010.8 |
| 20260510013048 | 20 | 0 | 0.0 | 0.0 | 0.00 | 0.10 | 0.00 | 60 | 1010.6 |
| 20260510012531 | 20 | 0 | 0.0 | 0.0 | 0.00 | 0.10 | 0.00 | 59 | 1010.6 |
| 20260510012032 | 21 | 0 | 0.0 | 0.0 | 0.00 | 0.10 | 0.00 | 60 | 1010.4 |
| 20260510011543 | 21 | 0 | 0.0 | 0.0 | 0.00 | 0.10 | 0.00 | 59 | 1010.4 |
| 20260510011031 | 21 | 0 | 0.0 | 0.0 | 0.00 | 0.10 | 0.00 | 59 | 1010.4 |
| 20260510010530 | 22 | 0 | 0.0 | 0.0 | 0.00 | 0.10 | 0.00 | 59 | 1010.4 |
| 20260510010044 | 22 | 0 | 0.0 | 0.0 | 0.00 | 0.10 | 0.00 | 57 | 1010.3 |
| 20260510005529 | 22 | 0 | 0.0 | 0.0 | 0.00 | 0.10 | 0.00 | 55 | 1010.3 |
| 20260510005029 | 22 | 0 | 0.0 | 0.0 | 0.00 | 0.10 | 0.00 | 53 | 1010.2 |
| 20260510004545 | 22 | 0 | 0.0 | 0.0 | 0.00 | 0.10 | 0.00 | 51 | 1010.2 |
| 20260510004032 | 23 | 0 | 0.0 | 0.0 | 0.00 | 0.10 | 0.00 | 53 | 1010.3 |
| 20260510003530 | 23 | 0 | 0.0 | 0.0 | 0.00 | 0.10 | 0.00 | 54 | 1010.3 |
| 20260510003038 | 23 | 0 | 0.0 | 0.0 | 0.00 | 0.10 | 0.00 | 53 | 1010.2 |
| 20260510002532 | 23 | 0 | 0.0 | 0.0 | 0.00 | 0.10 | 0.00 | 53 | 1010.3 |
| 20260510002029 | 23 | 0 | 0.0 | 0.0 | 0.00 | 0.10 | 0.00 | 52 | 1010.3 |
| 20260510001543 | 23 | 0 | 0.0 | 0.0 | 0.00 | 0.10 | 0.00 | 50 | 1010.3 |
| 20260510001030 | 24 | 0 | 0.0 | 0.0 | 0.00 | 0.10 | 0.00 | 48 | 1010.4 |
| 20260510000529 | 24 | 0 | 0.0 | 0.0 | 0.00 | 0.10 | 0.00 | 50 | 1010.3 |
| 20260510000048 | 24 | 0 | 0.0 | 1.6 | 0.00 | 0.10 | 0.00 | 48 | 1010.4 |
| 20260509235529 | 25 | 0 | 0.0 | 1.6 | 0.00 | 0.10 | 0.00 | 47 | 1010.3 |
| 20260509235029 | 25 | 0 | 0.0 | 1.6 | 0.00 | 0.10 | 0.00 | 49 | 1010.2 |
| 20260509234544 | 25 | 0 | 0.0 | 0.0 | 0.00 | 0.10 | 0.00 | 46 | 1010.3 |
| 20260509234032 | 25 | 0 | 0.0 | 1.6 | 0.00 | 0.10 | 0.00 | 48 | 1010.3 |
| 20260509233530 | 25 | 0 | 0.0 | 1.6 | 0.00 | 0.10 | 0.00 | 43 | 1010.3 |
| 20260509233043 | 25 | 0 | 0.0 | 1.6 | 0.00 | 0.10 | 0.00 | 43 | 1010.2 |
| 20260509232531 | 25 | 0 | 0.0 | 3.2 | 0.00 | 0.10 | 0.00 | 44 | 1010.2 |
| 20260509232031 | 26 | 0 | 0.0 | 3.2 | 0.00 | 0.10 | 0.00 | 43 | 1010.3 |
| 20260509231544 | 25 | 0 | 0.0 | 3.2 | 0.00 | 0.10 | 0.00 | 43 | 1010.2 |
| 20260509231031 | 26 | 0 | 0.0 | 3.2 | 0.00 | 0.10 | 0.00 | 41 | 1010.3 |
| 20260509230530 | 26 | 130 | 0.0 | 3.2 | 0.00 | 0.10 | 0.00 | 41 | 1010.4 |
| 20260509230041 | 26 | 130 | 0.0 | 3.2 | 0.00 | 0.10 | 0.00 | 41 | 1010.4 |
| 20260509225529 | 26 | 0 | 0.0 | 1.6 | 0.00 | 0.10 | 0.00 | 43 | 1010.4 |
| 20260509225029 | 26 | 0 | 0.0 | 3.2 | 0.00 | 0.10 | 0.00 | 41 | 1010.4 |
| 20260509224540 | 26 | 0 | 0.0 | 6.4 | 0.00 | 0.10 | 0.00 | 40 | 1010.4 |
| 20260509224030 | 26 | 0 | 0.0 | 6.4 | 0.00 | 0.10 | 0.00 | 40 | 1010.4 |
| 20260509223530 | 26 | 84 | 0.0 | 3.2 | 0.00 | 0.10 | 0.00 | 42 | 1010.2 |
| 20260509223040 | 26 | 0 | 0.0 | 3.2 | 0.00 | 0.10 | 0.00 | 40 | 1010.2 |
| 20260509222532 | 26 | 0 | 0.0 | 3.2 | 0.00 | 0.10 | 0.00 | 41 | 1010.3 |
| 20260509222035 | 26 | 0 | 0.0 | 4.8 | 0.00 | 0.10 | 0.00 | 42 | 1010.3 |
| 20260509221543 | 26 | 0 | 0.0 | 4.8 | 0.00 | 0.10 | 0.00 | 41 | 1010.2 |
| 20260509221030 | 26 | 0 | 0.0 | 3.2 | 0.00 | 0.10 | 0.00 | 42 | 1010.2 |
| 20260509220533 | 26 | 0 | 0.0 | 3.2 | 0.00 | 0.10 | 0.00 | 42 | 1010.3 |
| 20260509220042 | 26 | 0 | 1.6 | 3.2 | 0.00 | 0.10 | 0.00 | 41 | 1010.3 |
| 20260509215532 | 26 | 157 | 0.0 | 3.2 | 0.00 | 0.10 | 0.00 | 40 | 1010.3 |
| 20260509215030 | 26 | 0 | 0.0 | 3.2 | 0.00 | 0.10 | 0.00 | 43 | 1010.3 |
| 20260509214555 | 26 | 282 | 0.0 | 4.8 | 0.00 | 0.10 | 0.00 | 43 | 1010.3 |
| 20260509214029 | 26 | 282 | 1.6 | 4.8 | 0.00 | 0.10 | 0.00 | 42 | 1010.4 |
| 20260509213532 | 26 | 0 | 0.0 | 3.2 | 0.00 | 0.10 | 0.00 | 42 | 1010.4 |
| 20260509213042 | 26 | 0 | 0.0 | 0.0 | 0.00 | 0.10 | 0.00 | 47 | 1010.4 |
| 20260509212529 | 26 | 0 | 0.0 | 1.6 | 0.00 | 0.10 | 0.00 | 47 | 1010.5 |
| 20260509212029 | 26 | 0 | 0.0 | 6.4 | 0.00 | 0.10 | 0.00 | 44 | 1010.5 |
| 20260509211541 | 26 | 0 | 0.0 | 6.4 | 0.00 | 0.10 | 0.00 | 46 | 1010.6 |
| 20260509211030 | 26 | 0 | 0.0 | 3.2 | 0.00 | 0.10 | 0.00 | 47 | 1010.7 |
| 20260509210530 | 26 | 0 | 0.0 | 3.2 | 0.00 | 0.10 | 0.00 | 41 | 1010.7 |
| 20260509210049 | 26 | 115 | 0.0 | 3.2 | 0.00 | 0.10 | 0.00 | 39 | 1010.7 |
| 20260509205530 | 27 | 0 | 0.0 | 3.2 | 0.00 | 0.10 | 0.00 | 42 | 1010.8 |
| 20260509205030 | 27 | 115 | 0.0 | 3.2 | 0.00 | 0.10 | 0.00 | 39 | 1010.8 |
| 20260509204543 | 27 | 0 | 0.0 | 3.2 | 0.00 | 0.10 | 0.00 | 40 | 1010.8 |
| 20260509204029 | 27 | 0 | 0.0 | 3.2 | 0.00 | 0.10 | 0.00 | 39 | 1010.8 |
| 20260509203529 | 27 | 0 | 0.0 | 3.2 | 0.00 | 0.10 | 0.00 | 43 | 1010.9 |
| 20260509203050 | 27 | 0 | 0.0 | 3.2 | 0.00 | 0.10 | 0.00 | 43 | 1010.9 |
| 20260509202530 | 27 | 0 | 0.0 | 3.2 | 0.00 | 0.10 | 0.00 | 40 | 1010.8 |
| 20260509202032 | 27 | 0 | 0.0 | 3.2 | 0.00 | 0.10 | 0.00 | 38 | 1010.9 |
| 20260509201541 | 27 | 149 | 0.0 | 3.2 | 0.00 | 0.10 | 0.00 | 39 | 1010.9 |
| 20260509201029 | 27 | 222 | 1.6 | 4.8 | 0.00 | 0.10 | 0.00 | 39 | 1011.1 |
| 20260509200529 | 27 | 0 | 0.0 | 4.8 | 0.00 | 0.10 | 0.00 | 38 | 1010.9 |
| 20260509200042 | 27 | 0 | 0.0 | 6.4 | 0.00 | 0.10 | 0.00 | 40 | 1011.1 |
| 20260509195531 | 27 | 0 | 1.6 | 6.4 | 0.00 | 0.10 | 0.00 | 41 | 1011.1 |
| 20260509195029 | 27 | 93 | 1.6 | 6.4 | 0.00 | 0.10 | 0.00 | 39 | 1011.2 |
| 20260509194550 | 28 | 142 | 0.0 | 4.8 | 0.00 | 0.10 | 0.00 | 40 | 1011.1 |
| 20260509194030 | 28 | 140 | 0.0 | 4.8 | 0.00 | 0.10 | 0.00 | 38 | 1011.2 |
| 20260509193529 | 28 | 130 | 1.6 | 4.8 | 0.00 | 0.10 | 0.00 | 39 | 1011.3 |
| 20260509193052 | 28 | 192 | 0.0 | 4.8 | 0.00 | 0.10 | 0.00 | 38 | 1011.4 |
| 20260509192531 | 28 | 197 | 1.6 | 4.8 | 0.00 | 0.10 | 0.00 | 35 | 1011.3 |
| 20260509192030 | 28 | 0 | 0.0 | 4.8 | 0.00 | 0.10 | 0.00 | 41 | 1011.4 |
| 20260509191619 | 27 | 0 | 0.0 | 4.8 | 0.00 | 0.10 | 0.00 | 39 | 1011.6 |
| 20260509191026 | 27 | 219 | 1.6 | 4.8 | 0.00 | 0.10 | 0.00 | 33 | 1011.6 |
| 20260509190533 | 27 | 291 | 0.0 | 4.8 | 0.00 | 0.10 | 0.00 | 36 | 1011.6 |
| 20260509190050 | 27 | 0 | 0.0 | 4.8 | 0.00 | 0.10 | 0.00 | 38 | 1011.5 |
| 20260509185530 | 27 | 28 | 1.6 | 8.0 | 0.00 | 0.10 | 0.00 | 37 | 1011.5 |
| 20260509185029 | 27 | 11 | 1.6 | 8.0 | 0.00 | 0.10 | 0.00 | 38 | 1011.6 |
| 20260509184552 | 27 | 252 | 0.0 | 0.0 | 0.00 | 0.10 | 0.00 | 37 | 1011.6 |
| 20260509184026 | 27 | 0 | 0.0 | 0.0 | 0.00 | 0.10 | 0.00 | 40 | 1011.6 |
| 20260509183530 | 26 | 0 | 0.0 | 0.0 | 0.00 | 0.10 | 0.00 | 37 | 1011.7 |
| 20260509183050 | 26 | 0 | 0.0 | 0.0 | 0.00 | 0.10 | 0.00 | 37 | 1011.7 |
| 20260509182530 | 26 | 0 | 0.0 | 0.0 | 0.00 | 0.10 | 0.00 | 39 | 1011.8 |
| 20260509182029 | 26 | 0 | 0.0 | 0.0 | 0.00 | 0.10 | 0.00 | 39 | 1011.8 |
| 20260509181542 | 26 | 0 | 0.0 | 0.0 | 0.00 | 0.10 | 0.00 | 39 | 1011.8 |
| 20260509181029 | 26 | 0 | 0.0 | 0.0 | 0.00 | 0.10 | 0.00 | 37 | 1011.8 |
| 20260509180531 | 26 | 0 | 0.0 | 0.0 | 0.00 | 0.10 | 0.00 | 41 | 1011.7 |
| 20260509180040 | 26 | 0 | 0.0 | 0.0 | 0.00 | 0.10 | 0.00 | 42 | 1011.6 |
| 20260509175532 | 27 | 0 | 0.0 | 0.0 | 0.00 | 0.10 | 0.00 | 40 | 1011.7 |
| 20260509175030 | 27 | 0 | 0.0 | 0.0 | 0.00 | 0.10 | 0.00 | 43 | 1011.6 |
| 20260509174558 | 26 | 0 | 0.0 | 0.0 | 0.00 | 0.10 | 0.00 | 42 | 1011.7 |
| 20260509174030 | 26 | 0 | 0.0 | 1.6 | 0.00 | 0.10 | 0.00 | 42 | 1011.7 |
| 20260509173529 | 26 | 0 | 0.0 | 1.6 | 0.00 | 0.10 | 0.00 | 39 | 1011.7 |
| 20260509173049 | 25 | 0 | 0.0 | 0.0 | 0.00 | 0.10 | 0.00 | 44 | 1011.9 |
| 20260509172530 | 25 | 0 | 0.0 | 1.6 | 0.00 | 0.10 | 0.00 | 43 | 1011.9 |
| 20260509172030 | 26 | 0 | 0.0 | 1.6 | 0.00 | 0.10 | 0.00 | 46 | 1011.8 |
| 20260509171540 | 25 | 0 | 0.0 | 0.0 | 0.00 | 0.10 | 0.00 | 47 | 1011.9 |
| 20260509171029 | 25 | 0 | 0.0 | 0.0 | 0.00 | 0.10 | 0.00 | 46 | 1012.0 |
| 20260509170529 | 25 | 0 | 0.0 | 4.8 | 0.00 | 0.10 | 0.00 | 48 | 1012.0 |
| 20260509170048 | 25 | 0 | 0.0 | 4.8 | 0.00 | 0.10 | 0.00 | 49 | 1012.1 |
| 20260509165529 | 25 | 0 | 1.6 | 4.8 | 0.00 | 0.10 | 0.00 | 53 | 1012.0 |
| 20260509165029 | 24 | 0 | 0.0 | 3.2 | 0.00 | 0.10 | 0.00 | 57 | 1012.1 |
| 20260509164547 | 23 | 0 | 0.0 | 4.8 | 0.00 | 0.10 | 0.00 | 58 | 1012.2 |
| 20260509164029 | 23 | 308 | 1.6 | 4.8 | 0.00 | 0.10 | 0.00 | 57 | 1012.3 |
| 20260509163530 | 23 | 308 | 0.0 | 3.2 | 0.00 | 0.10 | 0.00 | 59 | 1012.4 |
| 20260509163045 | 23 | 0 | 1.6 | 3.2 | 0.00 | 0.10 | 0.00 | 61 | 1012.3 |
| 20260509162530 | 23 | 50 | 0.0 | 3.2 | 0.00 | 0.10 | 0.00 | 62 | 1012.3 |
| 20260509162030 | 23 | 58 | 0.0 | 3.2 | 0.00 | 0.10 | 0.00 | 63 | 1012.2 |
| 20260509161541 | 23 | 240 | 1.6 | 3.2 | 0.00 | 0.10 | 0.00 | 63 | 1012.2 |
| 20260509161037 | 22 | 240 | 0.0 | 3.2 | 0.00 | 0.10 | 0.00 | 64 | 1012.2 |
| 20260509160530 | 22 | 240 | 0.0 | 3.2 | 0.00 | 0.10 | 0.00 | 67 | 1012.1 |
| 20260509160039 | 22 | 0 | 0.0 | 3.2 | 0.00 | 0.10 | 0.00 | 67 | 1012.2 |
| 20260509155529 | 22 | 0 | 0.0 | 3.2 | 0.00 | 0.10 | 0.00 | 68 | 1012.1 |
| 20260509155029 | 22 | 0 | 0.0 | 3.2 | 0.00 | 0.10 | 0.00 | 69 | 1012.1 |
| 20260509154540 | 21 | 251 | 1.6 | 4.8 | 0.00 | 0.10 | 0.00 | 70 | 1012.1 |
| 20260509154030 | 21 | 0 | 0.0 | 4.8 | 0.00 | 0.10 | 0.00 | 70 | 1012.2 |
| 20260509153534 | 21 | 0 | 1.6 | 4.8 | 0.00 | 0.10 | 0.00 | 69 | 1012.2 |
| 20260509153053 | 21 | 0 | 0.0 | 0.0 | 0.00 | 0.10 | 0.00 | 71 | 1012.1 |
| 20260509152529 | 20 | 0 | 0.0 | 0.0 | 0.00 | 0.10 | 0.00 | 71 | 1012.1 |
| 20260509152029 | 20 | 0 | 0.0 | 0.0 | 0.00 | 0.10 | 0.00 | 74 | 1012.0 |
| 20260509151544 | 20 | 0 | 0.0 | 0.0 | 0.00 | 0.10 | 0.00 | 75 | 1012.0 |
| 20260509151030 | 20 | 0 | 0.0 | 0.0 | 0.00 | 0.10 | 0.00 | 76 | 1012.0 |
| 20260509150530 | 20 | 0 | 0.0 | 3.2 | 0.00 | 0.10 | 0.00 | 77 | 1012.0 |
| 20260509150045 | 19 | 0 | 0.0 | 4.8 | 0.00 | 0.10 | 0.00 | 78 | 1012.0 |
| 20260509145530 | 19 | 0 | 0.0 | 4.8 | 0.00 | 0.10 | 0.00 | 80 | 1011.9 |
| 20260509145030 | 18 | 236 | 1.6 | 4.8 | 0.00 | 0.10 | 0.00 | 79 | 1011.9 |
| 20260509144542 | 18 | 270 | 1.6 | 4.8 | 0.00 | 0.10 | 0.00 | 79 | 1011.9 |
| 20260509144031 | 18 | 272 | 1.6 | 4.8 | 0.00 | 0.10 | 0.00 | 80 | 1011.9 |
| 20260509143530 | 18 | 273 | 1.6 | 4.8 | 0.00 | 0.10 | 0.00 | 81 | 1011.9 |
| 20260509143040 | 18 | 239 | 0.0 | 3.2 | 0.00 | 0.10 | 0.00 | 82 | 1011.9 |
| 20260509142532 | 17 | 238 | 0.0 | 3.2 | 0.00 | 0.10 | 0.00 | 82 | 1011.9 |
| 20260509142029 | 17 | 237 | 0.0 | 3.2 | 0.00 | 0.10 | 0.00 | 82 | 1011.8 |
| 20260509141541 | 17 | 240 | 0.0 | 3.2 | 0.00 | 0.10 | 0.00 | 83 | 1011.9 |
| 20260509141030 | 17 | 240 | 1.6 | 3.2 | 0.00 | 0.10 | 0.00 | 84 | 1011.8 |
| 20260509140529 | 17 | 240 | 0.0 | 3.2 | 0.00 | 0.10 | 0.00 | 84 | 1011.9 |
| 20260509140047 | 16 | 0 | 0.0 | 1.6 | 0.00 | 0.10 | 0.00 | 85 | 1011.8 |
| 20260509135532 | 16 | 0 | 0.0 | 0.0 | 0.00 | 0.10 | 0.00 | 87 | 1011.7 |
| 20260509135033 | 16 | 0 | 0.0 | 0.0 | 0.00 | 0.10 | 0.00 | 88 | 1011.7 |
| 20260509134542 | 16 | 0 | 0.0 | 0.0 | 0.00 | 0.10 | 0.00 | 88 | 1011.6 |
| 20260509134029 | 15 | 0 | 0.0 | 0.0 | 0.00 | 0.10 | 0.00 | 89 | 1011.5 |
| 20260509133530 | 15 | 0 | 0.0 | 0.0 | 0.00 | 0.10 | 0.00 | 90 | 1011.5 |
| 20260509133043 | 15 | 0 | 0.0 | 0.0 | 0.00 | 0.10 | 0.00 | 91 | 1011.4 |
| 20260509132530 | 14 | 0 | 0.0 | 1.6 | 0.00 | 0.10 | 0.00 | 91 | 1011.4 |
| 20260509132030 | 14 | 0 | 0.0 | 1.6 | 0.00 | 0.10 | 0.00 | 92 | 1011.5 |
| 20260509131538 | 13 | 0 | 0.0 | 1.6 | 0.00 | 0.10 | 0.00 | 93 | 1011.4 |
| 20260509131029 | 13 | 0 | 0.0 | 1.6 | 0.00 | 0.10 | 0.00 | 94 | 1011.4 |
| 20260509130529 | 12 | 0 | 0.0 | 0.0 | 0.00 | 0.10 | 0.00 | 94 | 1011.3 |
| 20260509130042 | 12 | 0 | 0.0 | 0.0 | 0.00 | 0.10 | 0.00 | 94 | 1011.3 |
| 20260509125529 | 12 | 0 | 0.0 | 0.0 | 0.00 | 0.10 | 0.00 | 94 | 1011.4 |
| 20260509125030 | 12 | 0 | 0.0 | 0.0 | 0.00 | 0.10 | 0.00 | 94 | 1011.4 |
| 20260509124548 | 12 | 0 | 0.0 | 0.0 | 0.00 | 0.10 | 0.00 | 94 | 1011.3 |
| 20260509124030 | 12 | 0 | 0.0 | 0.0 | 0.00 | 0.10 | 0.00 | 94 | 1011.2 |
| 20260509123530 | 12 | 0 | 0.0 | 0.0 | 0.00 | 0.10 | 0.00 | 94 | 1011.2 |
| 20260509123043 | 11 | 0 | 0.0 | 0.0 | 0.00 | 0.10 | 0.00 | 94 | 1011.2 |
| 20260509122529 | 11 | 0 | 0.0 | 0.0 | 0.00 | 0.10 | 0.00 | 94 | 1011.1 |
| 20260509122030 | 11 | 0 | 0.0 | 0.0 | 0.00 | 0.10 | 0.00 | 94 | 1011.0 |
| 20260509121539 | 11 | 0 | 0.0 | 0.0 | 0.00 | 0.10 | 0.00 | 94 | 1010.9 |
| 20260509121030 | 11 | 0 | 0.0 | 0.0 | 0.00 | 0.10 | 0.00 | 94 | 1010.9 |
| 20260509120530 | 11 | 0 | 0.0 | 0.0 | 0.00 | 0.10 | 0.00 | 94 | 1011.0 |
| 20260509120041 | 11 | 0 | 0.0 | 0.0 | 0.00 | 0.10 | 0.00 | 93 | 1010.9 |
| 20260509115532 | 11 | 0 | 0.0 | 0.0 | 0.00 | 0.10 | 0.00 | 93 | 1010.9 |
| 20260509115029 | 11 | 0 | 0.0 | 0.0 | 0.00 | 0.10 | 0.00 | 93 | 1010.9 |
| 20260509114544 | 11 | 0 | 0.0 | 0.0 | 0.00 | 0.10 | 0.00 | 93 | 1010.8 |
| 20260509114029 | 10 | 0 | 0.0 | 0.0 | 0.00 | 0.10 | 0.00 | 92 | 1010.8 |
| 20260509113530 | 10 | 0 | 0.0 | 0.0 | 0.00 | 0.10 | 0.00 | 92 | 1010.8 |
| 20260509113050 | 11 | 0 | 0.0 | 1.6 | 0.00 | 0.10 | 0.00 | 91 | 1010.7 |
| 20260509112530 | 11 | 0 | 0.0 | 1.6 | 0.00 | 0.10 | 0.00 | 92 | 1010.6 |
| 20260509112030 | 11 | 0 | 0.0 | 1.6 | 0.00 | 0.10 | 0.00 | 93 | 1010.4 |
| 20260509111542 | 10 | 0 | 0.0 | 0.0 | 0.00 | 0.10 | 0.00 | 91 | 1010.4 |
| 20260509111032 | 10 | 0 | 0.0 | 0.0 | 0.00 | 0.10 | 0.00 | 91 | 1010.4 |
| 20260509110529 | 11 | 0 | 0.0 | 0.0 | 0.00 | 0.10 | 0.00 | 91 | 1010.3 |
| 20260509110045 | 11 | 0 | 0.0 | 1.6 | 0.00 | 0.10 | 0.00 | 91 | 1010.3 |
| 20260509105530 | 11 | 0 | 0.0 | 1.6 | 0.00 | 0.10 | 0.00 | 91 | 1010.1 |
| 20260509105030 | 11 | 0 | 0.0 | 0.0 | 0.00 | 0.10 | 0.00 | 90 | 1010.1 |
| 20260509104538 | 11 | 0 | 0.0 | 0.0 | 0.00 | 0.10 | 0.00 | 91 | 1010.0 |
| 20260509104031 | 11 | 0 | 0.0 | 0.0 | 0.00 | 0.10 | 0.00 | 90 | 1010.0 |
| 20260509103529 | 11 | 0 | 0.0 | 0.0 | 0.00 | 0.10 | 0.00 | 90 | 1010.0 |
| 20260509103048 | 11 | 0 | 0.0 | 0.0 | 0.00 | 0.10 | 0.00 | 90 | 1009.9 |
| 20260509102530 | 11 | 0 | 0.0 | 0.0 | 0.00 | 0.10 | 0.00 | 90 | 1009.8 |
| 20260509102029 | 11 | 0 | 0.0 | 0.0 | 0.00 | 0.10 | 0.00 | 89 | 1009.9 |
| 20260509101555 | 11 | 0 | 0.0 | 0.0 | 0.00 | 0.10 | 0.00 | 89 | 1009.9 |
| 20260509101031 | 11 | 0 | 0.0 | 0.0 | 0.00 | 0.10 | 0.00 | 89 | 1009.9 |
| 20260509100529 | 12 | 0 | 0.0 | 0.0 | 0.00 | 0.10 | 0.00 | 88 | 1010.0 |
| 20260509100136 | 12 | 0 | 0.0 | 0.0 | 0.00 | 0.10 | 0.00 | 88 | 1009.9 |
| 20260509095531 | 12 | 0 | 0.0 | 0.0 | 0.00 | 0.10 | 0.00 | 88 | 1010.1 |
| 20260509095029 | 12 | 0 | 0.0 | 0.0 | 0.00 | 0.10 | 0.00 | 88 | 1010.1 |
| 20260509094542 | 12 | 0 | 0.0 | 0.0 | 0.00 | 0.10 | 0.00 | 88 | 1010.1 |
| 20260509094029 | 12 | 0 | 0.0 | 0.0 | 0.00 | 0.10 | 0.00 | 88 | 1010.1 |
| 20260509093532 | 12 | 0 | 0.0 | 0.0 | 0.00 | 0.10 | 0.00 | 88 | 1010.2 |
| 20260509093041 | 12 | 0 | 0.0 | 0.0 | 0.00 | 0.10 | 0.00 | 87 | 1010.3 |
| 20260509092529 | 13 | 0 | 0.0 | 0.0 | 0.00 | 0.10 | 0.00 | 86 | 1010.3 |
| 20260509092029 | 13 | 0 | 0.0 | 0.0 | 0.00 | 0.10 | 0.00 | 85 | 1010.3 |
| 20260509091543 | 13 | 0 | 0.0 | 0.0 | 0.00 | 0.10 | 0.00 | 85 | 1010.3 |
| 20260509091030 | 13 | 0 | 0.0 | 0.0 | 0.00 | 0.10 | 0.00 | 85 | 1010.3 |
| 20260509090534 | 13 | 0 | 0.0 | 0.0 | 0.00 | 0.10 | 0.00 | 84 | 1010.3 |
| 20260509090048 | 13 | 0 | 0.0 | 0.0 | 0.00 | 0.10 | 0.00 | 84 | 1010.4 |
| 20260509085529 | 14 | 0 | 0.0 | 0.0 | 0.00 | 0.10 | 0.00 | 83 | 1010.4 |
| 20260509085030 | 14 | 0 | 0.0 | 0.0 | 0.00 | 0.10 | 0.00 | 83 | 1010.4 |
| 20260509084547 | 15 | 0 | 0.0 | 1.6 | 0.00 | 0.10 | 0.00 | 83 | 1010.6 |
| 20260509084030 | 15 | 0 | 0.0 | 3.2 | 0.00 | 0.10 | 0.00 | 83 | 1010.6 |
| 20260509083529 | 15 | 0 | 0.0 | 3.2 | 0.00 | 0.10 | 0.00 | 83 | 1010.4 |